GW1060 Weather Reports


time (UTC)temp
C
wind
direction
speed
KPH
gust
KPH
rain 1hr
cm
rain 24hr
cm
rain mn
cm
humidity
%
barometer
mb
20260504175722 21 243 3.2 4.8 0.00 0.00 0.00 33 1011.2
20260504175523 21 266 4.8 12.9 0.00 0.00 0.00 32 1011.6
20260504175218 21 290 4.8 4.8 0.00 0.00 0.00 33 1011.3
20260504174716 21 277 3.2 3.2 0.00 0.00 0.00 32 1011.3
20260504174611 21 253 8.0 20.9 0.00 0.00 0.00 33 1011.7
20260504174214 21 220 8.0 9.7 0.00 0.00 0.00 32 1011.3
20260504173710 21 310 14.5 17.7 0.00 0.00 0.00 31 1011.7
20260504173523 21 274 6.4 17.7 0.00 0.00 0.00 32 1011.9
20260504173208 21 308 6.4 9.7 0.00 0.00 0.00 32 1011.5
20260504172704 21 253 11.3 22.5 0.00 0.00 0.00 33 1011.8
20260504172531 21 242 8.0 22.5 0.00 0.00 0.00 33 1011.9
20260504172200 20 219 4.8 9.7 0.00 0.00 0.00 34 1011.5
20260504171657 20 238 6.4 9.7 0.00 0.00 0.00 33 1011.7
20260504171531 20 243 8.0 17.7 0.00 0.00 0.00 33 1012.1
20260504171154 20 263 12.9 17.7 0.00 0.00 0.00 32 1012.0
20260504170650 20 259 0.0 1.6 0.00 0.00 0.00 33 1011.8
20260504170531 20 256 8.0 22.5 0.00 0.00 0.00 33 1012.2
20260504170148 21 267 8.0 16.1 0.00 0.00 0.00 32 1012.1
20260504160106 19 195 16.1 22.5 0.00 0.00 0.00 33 1012.8
20260504151033 18 234 14.5 16.1 0.00 0.00 0.00 34 1013.4
20260504150532 17 226 9.7 17.7 0.00 0.00 0.00 36 1013.8
20260504140956 16 226 11.3 16.1 0.00 0.00 0.00 38 1014.1
20260504140535 16 231 8.0 24.1 0.00 0.00 0.00 39 1014.3
20260504140453 16 235 11.3 12.9 0.00 0.00 0.00 38 1014.0
20260504130516 13 235 4.8 12.9 0.00 0.00 0.00 45 1014.8
20260504130418 13 236 3.2 4.8 0.00 0.00 0.00 45 1014.5
20260504110535 6 267 0.0 3.2 0.00 0.00 0.00 76 1015.2
20260504110305 6 294 0.0 0.0 0.00 0.00 0.00 77 1015.0
20260504100515 5 0.0 0.0 0.00 0.00 0.00 76 1015.1
20260504100223 5 290 0.0 0.0 0.00 0.00 0.00 76 1014.9
20260504081616 7 285 0.0 0.0 0.00 0.00 0.00 61 1014.4
20260504081524 7 281 0.0 1.6 0.00 0.00 0.00 60 1014.7
20260504081112 7 283 0.0 0.0 0.00 0.00 0.00 61 1014.4
20260504080609 7 284 0.0 0.0 0.00 0.00 0.00 60 1014.4
20260504080532 8 0.0 0.0 0.00 0.00 0.00 60 1014.5
20260504080105 8 287 0.0 0.0 0.00 0.00 0.00 59 1014.2
20260504050531 7 0.0 0.0 0.00 0.00 0.00 62 1013.9
20260504050421 7 286 0.0 0.0 0.00 0.00 0.00 61 1013.8
20260504045918 6 284 1.6 1.6 0.00 0.00 0.00 65 1013.8
20260504045524 6 0.0 0.0 0.00 0.00 0.00 67 1013.9
20260504045414 6 290 0.0 0.0 0.00 0.00 0.00 67 1013.7
20260504044910 6 290 0.0 0.0 0.00 0.00 0.00 70 1013.8
20260504044551 6 0.0 0.0 0.00 0.00 0.00 73 1013.8
20260504044408 6 290 0.0 0.0 0.00 0.00 0.00 72 1013.6
20260504043905 5 295 0.0 0.0 0.00 0.00 0.00 77 1013.6
20260504043524 5 0.0 0.0 0.00 0.00 0.00 79 1013.8
20260504043402 5 294 0.0 0.0 0.00 0.00 0.00 79 1013.5
20260504042900 5 294 0.0 0.0 0.00 0.00 0.00 79 1013.6
20260504042532 5 0.0 0.0 0.00 0.00 0.00 80 1013.7
20260504042355 5 294 0.0 0.0 0.00 0.00 0.00 80 1013.4
20260504041852 5 305 0.0 0.0 0.00 0.00 0.00 80 1013.4
20260504041524 5 0.0 0.0 0.00 0.00 0.00 80 1013.6
20260504041348 5 290 0.0 0.0 0.00 0.00 0.00 80 1013.2
20260504040845 5 289 0.0 0.0 0.00 0.00 0.00 79 1013.1
20260504040516 5 0.0 0.0 0.00 0.00 0.00 79 1013.5
20260504040342 5 293 0.0 0.0 0.00 0.00 0.00 79 1013.1
20260504035838 5 296 0.0 0.0 0.00 0.00 0.00 78 1013.3
20260504035531 5 0.0 0.0 0.00 0.00 0.00 78 1013.3
20260504035336 5 292 0.0 0.0 0.00 0.00 0.00 78 1013.1
20260504034832 5 293 0.0 0.0 0.00 0.00 0.00 77 1013.0
20260504034531 5 0.0 0.0 0.00 0.00 0.00 77 1013.3
20260504034330 5 288 0.0 0.0 0.00 0.00 0.00 77 1013.0
20260504033827 6 296 0.0 0.0 0.00 0.00 0.00 77 1013.1
20260504033524 6 0.0 0.0 0.00 0.00 0.00 75 1013.5
20260504033325 6 293 0.0 0.0 0.00 0.00 0.00 75 1013.2
20260504032821 6 287 0.0 0.0 0.00 0.00 0.00 75 1013.2
20260504032516 6 0.0 0.0 0.00 0.00 0.00 75 1013.6
20260504032319 6 293 0.0 0.0 0.00 0.00 0.00 75 1013.4
20260504031815 6 305 0.0 0.0 0.00 0.00 0.00 75 1013.2
20260504031524 6 0.0 0.0 0.00 0.00 0.00 74 1013.5
20260504031313 6 293 0.0 0.0 0.00 0.00 0.00 74 1013.3
20260504030809 6 295 0.0 0.0 0.00 0.00 0.00 74 1013.3
20260504030536 6 0.0 0.0 0.00 0.00 0.00 74 1013.5
20260504030306 6 293 0.0 0.0 0.00 0.00 0.00 73 1013.2
20260504025802 6 291 0.0 0.0 0.00 0.00 0.00 73 1013.1
20260504025524 6 0.0 0.0 0.00 0.00 0.00 72 1013.4
20260504025259 6 293 0.0 0.0 0.00 0.00 0.00 72 1013.1
20260504024756 6 281 0.0 0.0 0.00 0.00 0.00 71 1013.2
20260504024516 6 0.0 0.0 0.00 0.00 0.00 69 1013.5
20260504024252 6 290 0.0 0.0 0.00 0.00 0.00 70 1013.2
20260504023749 7 291 0.0 0.0 0.00 0.00 0.00 69 1013.2
20260504023524 7 0.0 0.0 0.00 0.00 0.00 69 1013.4
20260504023246 7 294 0.0 0.0 0.00 0.00 0.00 68 1013.2
20260504022742 7 293 0.0 0.0 0.00 0.00 0.00 68 1013.1
20260504022516 7 0.0 0.0 0.00 0.00 0.00 68 1013.5
20260504022238 7 293 0.0 0.0 0.00 0.00 0.00 68 1013.2
20260504021735 7 292 0.0 0.0 0.00 0.00 0.00 67 1013.3
20260504021524 7 0.0 0.0 0.00 0.00 0.00 66 1013.4
20260504021232 7 294 0.0 0.0 0.00 0.00 0.00 66 1013.1
20260504020729 7 291 0.0 0.0 0.00 0.00 0.00 65 1013.1
20260504020516 8 273 0.0 1.6 0.00 0.00 0.00 64 1013.5
20260504020226 8 278 0.0 0.0 0.00 0.00 0.00 64 1013.3
20260504015722 8 294 0.0 0.0 0.00 0.00 0.00 63 1013.3
20260504015524 8 0.0 0.0 0.00 0.00 0.00 61 1013.4
20260504015218 8 286 0.0 0.0 0.00 0.00 0.00 61 1013.0
20260504014714 8 289 0.0 0.0 0.00 0.00 0.00 61 1013.1
20260504014516 8 0.0 0.0 0.00 0.00 0.00 60 1013.3
20260504014211 8 288 0.0 0.0 0.00 0.00 0.00 60 1013.0
20260504013709 8 288 0.0 0.0 0.00 0.00 0.00 58 1012.9
20260504013524 8 0.0 0.0 0.00 0.00 0.00 57 1013.2
20260504013206 8 289 0.0 0.0 0.00 0.00 0.00 56 1012.9
20260504012703 9 288 0.0 0.0 0.00 0.00 0.00 54 1013.0
20260504012516 9 0.0 0.0 0.00 0.00 0.00 53 1013.2
20260504012201 9 288 0.0 0.0 0.00 0.00 0.00 53 1013.0
20260504011658 10 287 0.0 0.0 0.00 0.00 0.00 52 1013.0
20260504011524 10 0.0 0.0 0.00 0.00 0.00 51 1013.1
20260504011154 10 282 0.0 0.0 0.00 0.00 0.00 51 1012.9
20260504010650 10 287 0.0 0.0 0.00 0.00 0.00 48 1012.6
20260504010516 11 0.0 0.0 0.00 0.00 0.00 48 1012.9
20260504010145 11 282 0.0 0.0 0.00 0.00 0.00 47 1012.6
20260504005643 11 285 0.0 0.0 0.00 0.00 0.00 45 1012.5
20260504005524 11 0.0 0.0 0.00 0.00 0.00 43 1012.7
20260504005139 12 284 0.0 0.0 0.00 0.00 0.00 42 1012.6
20260504004638 12 286 0.0 0.0 0.00 0.00 0.00 43 1012.5
20260504004516 13 263 0.0 1.6 0.00 0.00 0.00 39 1012.6
20260504004134 13 291 0.0 0.0 0.00 0.00 0.00 36 1012.3
20260504003631 13 293 0.0 0.0 0.00 0.00 0.00 34 1012.3
20260504003524 13 315 0.0 3.2 0.00 0.00 0.00 34 1012.6
20260504003127 13 324 1.6 1.6 0.00 0.00 0.00 34 1012.3
20260504002624 13 321 0.0 1.6 0.00 0.00 0.00 34 1012.2
20260504002516 13 321 1.6 8.0 0.00 0.00 0.00 34 1012.3
20260504002122 13 7 4.8 8.0 0.00 0.00 0.00 33 1012.1
20260504001620 13 305 1.6 1.6 0.00 0.00 0.00 34 1012.0
20260504001524 14 329 1.6 4.8 0.00 0.00 0.00 33 1012.2
20260504001115 14 339 1.6 3.2 0.00 0.00 0.00 33 1012.0
20260504000613 14 300 1.6 1.6 0.00 0.00 0.00 32 1011.9
20260504000516 14 314 1.6 4.8 0.00 0.00 0.00 32 1012.1
20260504000110 14 306 1.6 1.6 0.00 0.00 0.00 32 1011.7
20260503235608 14 298 3.2 3.2 0.00 0.00 0.00 32 1011.8
20260503235544 14 326 3.2 8.0 0.00 0.00 0.00 32 1011.9
20260503235105 15 301 3.2 3.2 0.00 0.00 0.00 32 1011.7
20260503234603 15 289 6.4 12.9 0.00 0.00 0.00 31 1011.8
20260503234516 15 328 3.2 8.0 0.00 0.00 0.00 31 1011.9
20260503234100 15 333 3.2 3.2 0.00 0.00 0.00 31 1011.6
20260503233556 15 305 4.8 8.0 0.00 0.00 0.00 30 1011.6
20260503233524 15 305 1.6 4.8 0.00 0.00 0.00 30 1011.7
20260503233052 15 294 0.0 1.6 0.00 0.00 0.00 29 1011.5
20260503232550 15 330 4.8 4.8 0.00 0.00 0.00 29 1011.4
20260503232516 15 345 3.2 9.7 0.00 0.00 0.00 28 1011.6
20260503232047 15 318 3.2 3.2 0.00 0.00 0.00 28 1011.3
20260503231545 15 289 6.4 12.9 0.00 0.00 0.00 28 1011.1
20260503231524 15 319 4.8 12.9 0.00 0.00 0.00 28 1011.6
20260503231041 15 305 6.4 8.0 0.00 0.00 0.00 28 1011.1
20260503230538 15 341 4.8 4.8 0.00 0.00 0.00 28 1011.3
20260503230516 15 341 3.2 9.7 0.00 0.00 0.00 28 1011.5
20260503230036 15 1 4.8 8.0 0.00 0.00 0.00 28 1011.2
20260503225532 16 89 3.2 4.8 0.00 0.00 0.00 28 1011.2
20260503225524 16 345 4.8 16.1 0.00 0.00 0.00 27 1011.5
20260503225027 16 6 6.4 8.0 0.00 0.00 0.00 27 1011.1
20260503224525 16 6 4.8 8.0 0.00 0.00 0.00 27 1011.1
20260503224516 16 332 4.8 14.5 0.00 0.00 0.00 27 1011.3
20260503224023 16 10 8.0 9.7 0.00 0.00 0.00 27 1010.9
20260503223524 16 326 4.8 11.3 0.00 0.00 0.00 27 1011.3
20260503223521 16 294 1.6 3.2 0.00 0.00 0.00 27 1010.9
20260503223016 16 340 4.8 9.7 0.00 0.00 0.00 27 1011.0
20260503222516 16 326 6.4 17.7 0.00 0.00 0.00 26 1011.3
20260503222514 16 345 8.0 9.7 0.00 0.00 0.00 26 1011.1
20260503222012 16 353 6.4 9.7 0.00 0.00 0.00 26 1011.1
20260503221524 16 1 8.0 22.5 0.00 0.00 0.00 26 1011.3
20260503221510 15 3 6.4 8.0 0.00 0.00 0.00 28 1010.9
20260503221007 16 342 6.4 8.0 0.00 0.00 0.00 27 1011.2
20260503220536 16 339 6.4 16.1 0.00 0.00 0.00 27 1011.4
20260503220503 16 48 11.3 14.5 0.00 0.00 0.00 26 1011.1
20260503220000 16 333 3.2 3.2 0.00 0.00 0.00 27 1011.1
20260503215524 16 349 4.8 16.1 0.00 0.00 0.00 27 1011.4
20260503215457 16 1 9.7 12.9 0.00 0.00 0.00 26 1011.3
20260503214954 16 3 4.8 4.8 0.00 0.00 0.00 28 1011.1
20260503214517 15 356 8.0 22.5 0.00 0.00 0.00 27 1011.4
20260503214452 15 34 3.2 4.8 0.00 0.00 0.00 27 1011.2
20260503213949 15 10 4.8 9.7 0.00 0.00 0.00 28 1011.2
20260503213604 15 337 8.0 17.7 0.00 0.00 0.00 26 1011.4
20260503213447 15 3 11.3 17.7 0.00 0.00 0.00 26 1010.9
20260503212943 15 333 1.6 1.6 0.00 0.00 0.00 26 1011.0
20260503212516 15 344 9.7 25.7 0.00 0.00 0.00 26 1011.5
20260503212441 15 6 11.3 14.5 0.00 0.00 0.00 26 1011.2
20260503211938 16 354 11.3 22.5 0.00 0.00 0.00 26 1011.1
20260503211544 15 311 9.7 24.1 0.00 0.00 0.00 26 1011.2
20260503211435 15 306 3.2 11.3 0.00 0.00 0.00 27 1010.9
20260503210930 15 344 11.3 12.9 0.00 0.00 0.00 26 1010.9
20260503210517 15 328 9.7 22.5 0.00 0.00 0.00 27 1011.3
20260503210427 15 299 8.0 11.3 0.00 0.00 0.00 27 1011.0
20260503205922 15 312 6.4 9.7 0.00 0.00 0.00 27 1010.9
20260503205524 15 341 8.0 20.9 0.00 0.00 0.00 28 1011.4
20260503205420 15 310 4.8 4.8 0.00 0.00 0.00 28 1011.2
20260503204916 15 322 14.5 17.7 0.00 0.00 0.00 27 1011.4
20260503204551 15 357 12.9 29.0 0.00 0.00 0.00 28 1011.3
20260503204413 15 31 9.7 14.5 0.00 0.00 0.00 27 1011.2
20260503203910 15 324 6.4 9.7 0.00 0.00 0.00 28 1011.1
20260503203524 15 351 9.7 20.9 0.00 0.00 0.00 28 1011.4
20260503203408 15 20 8.0 11.3 0.00 0.00 0.00 28 1011.1
20260503202904 15 348 6.4 9.7 0.00 0.00 0.00 29 1011.2
20260503202531 15 337 6.4 17.7 0.00 0.00 0.00 28 1011.3
20260503202403 15 335 8.0 9.7 0.00 0.00 0.00 29 1011.0
20260503201901 15 301 6.4 8.0 0.00 0.00 0.00 28 1011.2
20260503201525 15 320 8.0 20.9 0.00 0.00 0.00 28 1011.4
20260503201357 15 321 4.8 4.8 0.00 0.00 0.00 28 1011.1
20260503200855 15 285 6.4 9.7 0.00 0.00 0.00 29 1011.1
20260503200517 15 357 9.7 32.2 0.00 0.00 0.00 29 1011.4
20260503200350 15 2 11.3 17.7 0.00 0.00 0.00 28 1011.0
20260503195848 15 336 9.7 14.5 0.00 0.00 0.00 28 1011.2
20260503195525 14 324 8.0 25.7 0.00 0.00 0.00 29 1011.6
20260503195344 14 330 6.4 11.3 0.00 0.00 0.00 28 1011.3
20260503194842 14 350 19.3 24.1 0.00 0.00 0.00 29 1011.4
20260503194517 14 326 11.3 24.1 0.00 0.00 0.00 29 1011.8
20260503194337 14 284 8.0 11.3 0.00 0.00 0.00 30 1011.5
20260503193834 14 318 8.0 11.3 0.00 0.00 0.00 29 1011.4
20260503193525 14 347 6.4 17.7 0.00 0.00 0.00 30 1011.8
20260503193330 14 329 4.8 4.8 0.00 0.00 0.00 31 1011.4
20260503192826 13 332 14.5 20.9 0.00 0.00 0.00 29 1011.6
20260503192516 14 337 11.3 32.2 0.00 0.00 0.00 30 1011.9
20260503192321 14 30 6.4 14.5 0.00 0.00 0.00 31 1011.5
20260503191818 14 293 11.3 17.7 0.00 0.00 0.00 32 1011.6
20260503191525 13 321 9.7 24.1 0.00 0.00 0.00 30 1012.0
20260503191315 13 7 17.7 24.1 0.00 0.00 0.00 30 1011.8
20260503190812 13 4 11.3 16.1 0.00 0.00 0.00 30 1011.7
20260503190516 13 5 6.4 20.9 0.00 0.00 0.00 32 1012.0
20260503190309 13 51 12.9 17.7 0.00 0.00 0.00 32 1011.8
20260503185806 13 328 9.7 16.1 0.00 0.00 0.00 30 1011.7
20260503185525 13 348 8.0 25.7 0.00 0.00 0.00 32 1012.1
20260503185304 13 311 8.0 9.7 0.00 0.00 0.00 31 1011.9
20260503184802 13 345 9.7 11.3 0.00 0.00 0.00 32 1011.9
20260503184516 13 329 6.4 27.4 0.00 0.00 0.00 32 1012.1
20260503184258 13 33 8.0 12.9 0.00 0.00 0.00 32 1012.1
20260503183754 13 12 9.7 12.9 0.00 0.00 0.00 34 1011.9
20260503183525 13 341 9.7 25.7 0.00 0.00 0.00 32 1012.2
20260503183252 13 353 9.7 14.5 0.00 0.00 0.00 32 1012.1
20260503182749 15 38 4.8 8.0 0.00 0.00 0.00 32 1012.0
20260503182517 13 317 4.8 16.1 0.00 0.00 0.00 34 1012.2
20260503182248 13 285 6.4 8.0 0.00 0.00 0.00 34 1011.9
20260503181744 13 330 3.2 4.8 0.00 0.00 0.00 33 1011.9
20260503181525 13 341 12.9 25.7 0.00 0.00 0.00 33 1012.4
20260503181242 13 279 16.1 20.9 0.00 0.00 0.00 33 1012.1
20260503180738 13 349 4.8 4.8 0.00 0.00 0.00 36 1012.0
20260503180517 13 337 8.0 20.9 0.00 0.00 0.00 34 1012.5
20260503180236 13 334 6.4 11.3 0.00 0.00 0.00 35 1012.3